STARLINK-31850, 59903

Orbit data source: Space-Track

STARLINK-31850, 59903 is a payload satellite owned by SpaceX/Seattle (US) in LEO that was launched on Tue, 28 May 2024 UTC via an FALCON 9 launch vehicle from the Air Force Eastern Test Range (AFETR). Payload-class satellites include a variety of spacecraft equipped with specific instruments for various scientific and technological missions. These include communications satellites like Starlink; space stations such as the ISS; scientific satellites like the Hubble; Earth observation satellites from companies like Planet Labs, Umbra, and HawkEye 360; GPS; miniature CubeSats for education and research; and military/defense satellites.

Loading next visibility...
Identifier
59903, 2024-100U
Orbit
LEO
Country
Flag of USUS
Related business
Manufacturer
SpaceX/Seattle
Mission
Operational spacecraft
Bus & Motor
STARLINK V2M, Unknown motor
Mass
730 kg wet, ~700 kg dry
Launch date (UTC)
2024-05-28 (2 years ago)
Launch vehicle
FALCON 9
Launch site
Air Force Eastern Test Range (AFETR)
Object type
Payload
Rocket body
Debris
Shape & HBR
Unknown shape, 17.7 m
Radar Cross Section
Large (>1 m²)

Expand to show TLE details & history
Last TLE update: 6 hours ago

TLE from 6 hours ago
0 STARLINK-31850
1 59903U 24100U   26036.50002314  .00010995  00000-0  40830-3 0  9997
2 59903  43.0031 306.9057 0001786 268.6510 214.4975 15.27593776  5895
Epoch: 2026-02-05T12:00Z
TLE epoch observation values (Epoch: 2026-02-05T12:00:01.999Z)
Latitude
34.96101°
Longitude
123.03786°
Altitude
485.468 km
Speed
7.627 km/s
True Right ascension
05h 14m 47s
True Declination
34° 47' 36"
Sunlit
Object was in full shadow at epoch
Visualization orbit readout
Latitude
Unknown
Longitude
Unknown
Altitude
Unknown
Speed
Unknown
Apparent Right ascension
Unknown
Apparent Declination
Unknown
Sunlit
N/A
Visualization observer readout
Local Sidereal Time
20:18:12
Azimuth
Unknown
Elevation
Unknown
Doppler factor
Unknown
Orbital elements
Apogee altitude
486.178 km
Perigee altitude
483.727 km
Semi-major axis
6,863.09 km
Eccentricity
0.00018
Inclination
43.0031°
RAAN
306.9057°
Arg. of periapsis
268.651°
True anomaly
214.48591°
Mean anomaly
214.4975°
Eccentric anomaly
214.49171°
Mean motion
3.81736 °/min
Orbital period
94.31 mins
BSTAR
0.0004083
Loading maneuver chart data...
Computing Atmospheric mass density...
Loading historical data...
Loading historical data...
Loading historical data...
Loading historical data...
Loading historical data...
Loading historical data...
Loading historical data...

Documentation

Showing up to 5 results
|